This is the latest recevied weather packets stored in our database for station/object K5BOU. If no packets are shown the sender has not sent any weather packets the latest 10 day(s).
| Time | Temp. | Humidity | Pressure | Rain* | Wind** | Luminosity | Snow |
|---|---|---|---|---|---|---|---|
| 1777755290 | 25° C | 51% | 1016.4 hPa | 0 mm | - | 346 W/m² | - |
| 1777754988 | 25° C | 52% | 1016.4 hPa | 0 mm | - | 210 W/m² | - |
| 1777754685 | 25° C | 52% | 1016.3 hPa | 0 mm | - | 343 W/m² | - |
| 1777754383 | 24.44° C | 54% | 1016.6 hPa | 0 mm | - | 260 W/m² | - |
| 1777754080 | 25° C | 51% | 1016.4 hPa | 0 mm | - | 288 W/m² | - |
| 1777753776 | 24.44° C | 50% | 1016.5 hPa | 0 mm | - | 628 W/m² | - |
| 1777753473 | 25° C | 51% | 1016.8 hPa | 0 mm | - | 661 W/m² | - |
| 1777753171 | 24.44° C | 53% | 1016.8 hPa | 0 mm | - | 655 W/m² | - |
| 1777752866 | 24.44° C | 52% | 1016.8 hPa | 0 mm | - | 672 W/m² | - |
| 1777752564 | 24.44° C | 52% | 1016.8 hPa | 0 mm | - | 682 W/m² | - |
| 1777752259 | 24.44° C | 52% | 1016.8 hPa | 0 mm | - | 698 W/m² | - |
| 1777751957 | 24.44° C | 50% | 1017.1 hPa | 0 mm | - | 690 W/m² | - |
| 1777751654 | 24.44° C | 52% | 1017 hPa | 0 mm | - | 686 W/m² | - |
| 1777751350 | 24.44° C | 53% | 1017.3 hPa | 0 mm | - | 696 W/m² | - |
| 1777751048 | 24.44° C | 53% | 1017.3 hPa | 0 mm | - | 697 W/m² | - |
| 1777750743 | 23.89° C | 53% | 1017.4 hPa | 0 mm | - | 696 W/m² | - |
| 1777750441 | 23.89° C | 53% | 1017.4 hPa | 0 mm | - | 703 W/m² | - |
| 1777750136 | 23.89° C | 53% | 1017.6 hPa | 0 mm | - | 716 W/m² | - |
| 1777749833 | 23.89° C | 53% | 1017.6 hPa | 0 mm | - | 714 W/m² | - |
| 1777749530 | 23.89° C | 53% | 1017.6 hPa | 0 mm | - | 700 W/m² | - |
| 1777749228 | 23.89° C | 55% | 1017.7 hPa | 0 mm | - | 715 W/m² | - |
| 1777748925 | 23.89° C | 54% | 1017.6 hPa | 0 mm | - | 735 W/m² | - |
| 1777748623 | 23.89° C | 54% | 1017.6 hPa | 0 mm | - | 744 W/m² | - |
| 1777748318 | 23.89° C | 54% | 1017.7 hPa | 0 mm | - | 755 W/m² | - |
| 1777748014 | 23.89° C | 54% | 1017.7 hPa | 0 mm | - | 747 W/m² | - |
* Rain latest hour (hover to see other rain measurements)
** Current wind speed in m/s (hover to see current wind gust speed)